Location: Favalello
(42.2939°N, 9.2706°E)
Time: 03:09:43
(UTC+00:00)

Cosmos 2333 Rocket - Pass Details

Date: 06 December 2019
Orbit: 837 x 864 km, 70.8° (Epoch: 25 January)

Event Time Altitude Azimuth Distance (km) Brightness Sun altitude
Rises 16:32:51 0° 197° (SSW) 3,400 6.0 -7.8°
Reaches altitude 10° 16:35:17 10° 196° (SSW) 2,473 5.2 -8.2°
Maximum altitude 16:40:57 76° 112° (ESE) 887 2.2 -9.2°
Drops below altitude 10° 16:46:43 10° 28° (NNE) 2,506 4.2 -10.2°
Enters shadow 16:48:11 - 27° (NNE) 3,063 4.7 -10.4°
